Regional Weather Roundup
Issued by NWS Burlington, VT

Home | Current Version | Previous Version | Text Only | Print | Product List | Glossary On
Versions: 1 2 3 4 5 6 7 8 9 10 11 12 13 14 15 16 17 18 19 20 21 22 23 24 25 26 27 28 29 30 31 32 33 34 35 36 37 38 39 40 41 42 43 44 45 46 47 48 49 50
000
ASUS41 KBTV 300030
RWRBTV
VERMONT REGIONAL WEATHER ROUNDUP
NATIONAL WEATHER SERVICE BURLINGTON VT
800 PM EDT TUE JUL 29 2014

NOTE: "FAIR" INDICATES FEW OR NO CLOUDS BELOW 12,000 FEET WITH NO
SIGNIFICANT WEATHER AND/OR OBSTRUCTIONS TO VISIBILITY.

* THESE REPORTS ARE NOT UNDER NWS QUALITY CONTROL AND/OR DO NOT
  REPORT WEATHER SUCH AS PRECIPITATION AND FOG.

VTZ001>019-300100-
_____VERMONT_____


CITY           SKY/WX    TMP DP  RH WIND       PRES   REMARKS
BURLINGTON     PTCLDY    66  53  63 E3        29.93R
6HR MIN TEMP:  66; 6HR MAX TEMP:  73;

MONTPELIER     CLEAR     59  53  80 CALM      29.98R
6HR MIN TEMP:  59; 6HR MAX TEMP:  68;

MORRISVILLE    PTCLDY    61  52  72 CALM      29.96R
6HR MIN TEMP:  61; 6HR MAX TEMP:  71;

ST. JOHNSBURY*   N/A     64  52  64 MISG      29.92R
6HR MIN TEMP:  64; 6HR MAX TEMP:  71;

LYNDONVILLE*     N/A    N/A N/A N/A MISG        N/A
MIDDLEBURY*    MOCLDY    62  58  87 CALM      29.93S
6HR MIN TEMP:  63; 6HR MAX TEMP:  72;

RUTLAND*       PTCLDY    61  57  88 SE3       29.93R
6HR MIN TEMP:  64; 6HR MAX TEMP:  70;

SPRINGFIELD    MOCLDY    66  57  72 N3        29.92R
6HR MIN TEMP:  66; 6HR MAX TEMP:  74;

HIGHGATE*      FAIR      60  56  87 CALM      29.93R
6HR MIN TEMP:  61; 6HR MAX TEMP:  68;

NEWPORT*       FAIR     N/A N/A N/A CALM      29.96S
BENNINGTON     CLEAR     61  57  87 SW3       29.94R
6HR MIN TEMP:  61; 6HR MAX TEMP:  70;

SUTTON*          N/A     55 N/A N/A MISG        N/A
GALLUP MILLS*    N/A     41 N/A N/A MISG        N/A
UNION VILLAGE*   N/A     61 N/A N/A MISG        N/A
MT. MANSFIELD*   N/A     48 N/A N/A NW5         N/A

_____LAKE CHAMPLAIN_____


CITY           SKY/WX    TMP DP  RH WIND       PRES   REMARKS
COLCHESTER RF*   N/A     68  54  60 SE7         N/A
DIAMOND ISL*     N/A     66  55  68 N6          N/A

$$

NYZ007-026>031-035-052-083-300100-
_____NORTHERN NEW YORK_____


CITY           SKY/WX    TMP DP  RH WIND       PRES   REMARKS
PLATTSBURGH    PTCLDY    62  57  83 CALM      29.92R
6HR MIN TEMP:  62; 6HR MAX TEMP:  73;

SARANAC LAKE   MOCLDY    58  53  84 CALM      29.95R
6HR MIN TEMP:  58; 6HR MAX TEMP:  65;

MASSENA        CLEAR     64  57  78 SW5       29.93R
6HR MIN TEMP:  64; 6HR MAX TEMP:  71;

OGDENSBURG*    MOCLDY    64  57  77 SW7       29.93R
POTSDAM*       PTCLDY    63  57  82 CALM      29.94R
PARISHVILLE*     N/A     63 N/A N/A S3          N/A
WATERTOWN      CLOUDY    65  50  58 S5        29.95R
6HR MIN TEMP:  65; 6HR MAX TEMP:  71;

FT DRUM        PTCLDY    63  53  70 W5        29.96R
6HR MIN TEMP:  63; 6HR MAX TEMP:  69;

ALBANY         MOCLDY    68  53  58 W6        29.93R
6HR MIN TEMP:  68; 6HR MAX TEMP:  74;

GLENS FALLS    CLOUDY    68  59  73 NW3       29.92R
6HR MIN TEMP:  67; 6HR MAX TEMP:  73;


$$
NHZ002-005-011-300100-
_____NEW HAMPSHIRE_____


CITY           SKY/WX    TMP DP  RH WIND       PRES   REMARKS
LEBANON        MOCLDY    64  58  80 CALM      29.92R
6HR MIN TEMP:  64; 6HR MAX TEMP:  76;

KEENE          CLEAR     63  52  67 CALM      29.93R
6HR MIN TEMP:  64; 6HR MAX TEMP:  73;

MT WASHINGTON  FOG       43  43 100 S7          N/A  VSB 1/16
6HR MIN TEMP:  42; 6HR MAX TEMP:  48;

PLYMOUTH       FAIR      61  57  87 CALM      29.93R
6HR MIN TEMP:  63; 6HR MAX TEMP:  72;

WHITEFIELD     PTCLDY    61  55  81 CALM      29.94R
6HR MIN TEMP:  61; 6HR MAX TEMP:  71;


$$

_____REGIONAL QUEBEC LOCATIONS_____


CITY           SKY/WX    TMP DP  RH WIND       PRES   REMARKS
MONTREAL       PTCLDY    68  52  56 SW6       29.91R
QUEBEC CITY    PTCLDY    63  54  72 SW7       29.88R
SHERBROOKE     PTCLDY    61  54  77 SW5       29.93R

_____REGIONAL ONTARIO LOCATIONS_____


CITY           SKY/WX    TMP DP  RH WIND       PRES   REMARKS
OTTAWA         PTCLDY    66  54  63 SW5       29.91R

______KEY______
VSB  - VISIBILITY IN MILES
WCI  - WIND CHILL INDEX
HX   - HEAT INDEX
$$
NNNN


USA.gov is the U.S. government's official web portal to all federal, state and local government web resources and services.